Location: Bartlow
(52.0833°N, 0.3167°E)
Time: 12:33:58
(UTC+00:00)

BlueWalker 3 - Pass Details

Date: 26 September 2023
Orbit: 489 x 504 km, 53.2° (Epoch: 28 November)

Event Time Altitude Azimuth Distance (km) Brightness Sun altitude
Exits shadow 03:19:00 71° 35° (NE) 534 2.1 -23.1°
Drops below altitude 10° 03:22:37 10° 81° (E) 1,714 5.6 -22.6°
Sets 03:24:49 0° 83° (E) 2,602 6.7 -22.3°
